FW8396 Weather Reports


Display with metric or nautical units.
time (UTC)temp
F
wind
direction
speed
MPH
gust
MPH
rain 1hr
in
rain 24hr
in
rain mn
in
humidity
%
barometer
mb
20260902054540 82 0 0.0 2.0 0.00 0.01 0.00 78 1015.4
20260902053034 82 187 0.0 6.0 0.00 0.01 0.00 79 1015.3
20260902051542 81 219 0.0 3.0 0.00 0.01 0.00 79 1015.4
20260902050055 81 0 1.0 4.0 0.00 0.01 0.00 79 1015.6
20260902044535 81 0 1.0 3.0 0.00 0.01 0.01 80 1015.5
20260902043041 81 228 0.0 3.0 0.00 0.01 0.01 80 1015.5
20260902041534 81 0 0.0 3.0 0.00 0.01 0.01 80 1015.7
20260902040036 81 216 0.0 2.0 0.00 0.01 0.01 80 1015.7
20260902034537 81 0 0.0 2.0 0.00 0.01 0.01 80 1015.7
20260902033035 82 0 0.0 1.0 0.00 0.01 0.01 80 1015.6
20260902031535 82 0 0.0 2.0 0.00 0.01 0.01 80 1015.8
20260902030036 82 0 0.0 2.0 0.00 0.01 0.01 80 1015.4
20260902024539 82 0 0.0 2.0 0.00 0.01 0.01 80 1015.2
20260902023034 82 0 0.0 2.0 0.00 0.01 0.01 80 1015.0
20260902021534 82 0 0.0 2.0 0.00 0.01 0.01 80 1014.9
20260902020034 82 0 0.0 1.0 0.00 0.01 0.01 80 1014.6
20260902014533 82 0 0.0 2.0 0.00 0.01 0.01 80 1014.4
20260902013040 82 0 0.0 2.0 0.00 0.01 0.01 81 1014.2
20260902011537 82 0 0.0 3.0 0.00 0.01 0.01 80 1014.1
20260902010036 82 0 1.0 3.0 0.00 0.01 0.01 80 1014.1
20260902004536 82 0 0.0 3.0 0.00 0.01 0.01 80 1014.3
20260902003036 82 0 1.0 5.0 0.00 0.01 0.01 80 1014.4
20260902001533 82 290 1.0 4.0 0.00 0.01 0.01 81 1014.4
20260902000037 82 0 0.0 3.0 0.00 0.01 0.01 83 1014.3
20260901234535 82 256 0.0 4.0 0.00 0.01 0.01 83 1014.3
20260901233035 82 277 1.0 8.0 0.00 0.01 0.01 83 1014.3
20260901231533 82 317 2.0 5.0 0.00 0.01 0.01 82 1014.4
20260901230049 82 0 0.0 4.0 0.00 0.01 0.01 82 1014.9
20260901224536 83 320 1.0 6.0 0.00 0.01 0.01 83 1015.1
20260901223036 83 0 0.0 6.0 0.01 0.01 0.01 83 1015.0
20260901221531 83 0 0.0 1.0 0.01 0.01 0.01 84 1015.0
20260901220046 85 0 0.0 1.0 0.01 0.01 0.01 82 1014.8
20260901214533 86 58 0.0 2.0 0.01 0.01 0.01 79 1015.1
20260901213045 87 0 0.0 4.0 0.00 0.00 0.00 77 1015.4
20260901211535 88 292 1.0 9.0 0.00 0.00 0.00 71 1015.3
20260901210035 88 20 1.0 5.0 0.00 0.00 0.00 70 1015.0
20260901204539 87 284 0.0 3.0 0.00 0.00 0.00 70 1014.9
20260901203039 87 282 1.0 4.0 0.00 0.00 0.00 72 1015.0
20260901201538 86 276 1.0 3.0 0.00 0.00 0.00 74 1015.2
20260901200035 86 276 0.0 3.0 0.00 0.00 0.00 75 1015.5
20260901194537 86 340 0.0 2.0 0.00 0.17 0.00 78 1016.0
20260901193037 86 0 0.0 3.0 0.00 0.17 0.00 76 1016.3
20260901191544 87 0 0.0 3.0 0.00 0.17 0.00 75 1016.2
20260901190035 87 277 0.0 3.0 0.00 0.17 0.00 74 1016.3
20260901184602 87 275 2.0 5.0 0.00 0.17 0.00 72 1016.3
20260901183036 88 0 0.0 4.0 0.00 0.17 0.00 72 1016.4
20260901181551 88 273 1.0 4.0 0.00 0.17 0.00 70 1016.5
20260901180035 87 294 0.0 7.0 0.00 0.17 0.00 73 1016.6
20260901174550 87 293 1.0 5.0 0.00 0.17 0.00 74 1017.1
20260901173034 86 287 1.0 6.0 0.00 0.17 0.00 75 1017.5
20260901171541 87 0 0.0 3.0 0.00 0.17 0.00 74 1017.6
20260901170036 87 0 0.0 6.0 0.00 0.17 0.00 73 1017.6
20260901164541 87 0 0.0 7.0 0.00 0.17 0.00 71 1017.6
20260901163035 87 297 2.0 7.0 0.00 0.17 0.00 70 1017.8
20260901161546 88 0 0.0 4.0 0.00 0.17 0.00 72 1017.6
20260901160059 87 39 2.0 6.0 0.00 0.17 0.00 71 1017.5
20260901154535 87 54 1.0 8.0 0.00 0.17 0.00 72 1017.3
20260901153033 86 304 2.0 9.0 0.00 0.17 0.00 73 1017.2
20260901151535 86 346 1.0 7.0 0.00 0.17 0.00 76 1017.3
20260901150035 85 296 1.0 7.0 0.00 0.17 0.00 77 1017.4
20260901144533 85 317 1.0 5.0 0.00 0.17 0.00 79 1017.5
20260901143043 84 284 1.0 4.0 0.00 0.17 0.00 79 1017.4
20260901141541 84 284 2.0 6.0 0.00 0.17 0.00 79 1017.6
20260901140040 84 317 0.0 5.0 0.00 0.17 0.00 80 1017.6
20260901134538 84 0 1.0 5.0 0.00 0.17 0.00 80 1017.7
20260901133035 84 28 2.0 5.0 0.00 0.17 0.00 81 1017.7
20260901131535 82 0 0.0 2.0 0.00 0.17 0.00 84 1017.6
20260901130036 81 0 0.0 3.0 0.00 0.17 0.00 85 1017.5
20260901124537 80 294 0.0 3.0 0.00 0.17 0.00 86 1017.2
20260901123046 80 0 0.0 3.0 0.00 0.17 0.00 86 1016.9
20260901121539 80 0 0.0 3.0 0.00 0.17 0.00 87 1017.0
20260901120045 80 0 0.0 3.0 0.00 0.17 0.00 87 1016.9
20260901114541 80 0 0.0 2.0 0.00 0.17 0.00 87 1016.7
20260901113036 80 0 0.0 2.0 0.00 0.17 0.00 87 1016.8
20260901111535 80 177 0.0 3.0 0.00 0.17 0.00 87 1016.6
20260901110034 80 149 0.0 1.0 0.00 0.17 0.00 87 1016.5
20260901104532 80 0 0.0 0.0 0.00 0.17 0.00 87 1016.4
20260901103033 80 0 0.0 0.0 0.00 0.17 0.00 87 1016.6
20260901101536 80 0 0.0 0.0 0.00 0.17 0.00 87 1016.4
20260901100038 80 0 0.0 0.0 0.00 0.17 0.00 87 1016.5
20260901094536 81 0 0.0 0.0 0.00 0.17 0.00 87 1016.7
20260901093033 81 0 0.0 0.0 0.00 0.17 0.00 87 1016.7
20260901091535 81 0 0.0 0.0 0.00 0.17 0.00 86 1017.0
20260901090035 81 0 0.0 0.0 0.00 0.17 0.00 87 1016.9
20260901084537 81 0 0.0 0.0 0.00 0.17 0.00 86 1017.0
20260901083033 81 0 0.0 0.0 0.00 0.17 0.00 86 1017.0
20260901081536 81 0 0.0 0.0 0.00 0.17 0.00 86 1016.8
20260901080038 81 0 0.0 0.0 0.00 0.17 0.00 86 1016.8
20260901074535 81 0 0.0 0.0 0.00 0.17 0.00 86 1017.0
20260901073036 81 0 0.0 0.0 0.00 0.17 0.00 85 1017.0
20260901071535 82 0 0.0 0.0 0.00 0.17 0.00 85 1017.0
20260901070035 82 0 0.0 0.0 0.00 0.17 0.00 85 1017.0
20260901064534 82 0 0.0 0.0 0.00 0.17 0.00 84 1017.2
20260901063044 82 0 0.0 0.0 0.00 0.17 0.00 84 1017.2
20260901061537 82 0 0.0 0.0 0.00 0.17 0.00 83 1017.3
20260901060037 83 0 0.0 0.0 0.00 0.17 0.00 83 1017.2